This demonstration page uses our WeatherBlox Daily Observations layout. Learn more.

Left ArrowRight Arrow

Hourly Observations for December 18, 2020

Temp ( °F °C ) Dew Point ( °F °C ) Humidity (%) Winds ( mph kmh ) Pressure ( in mb ) Visibility ( mi km ) Precip ( " mm )
12:53 am 00:53 Cloudy 31 -0.6 27 -2.8 85 85 WNW 5 7 30.31 1027 7 11 0.00 0.00
1:53 am 01:53 Cloudy 31 -0.6 27 -2.8 85 85 NW 6 9 30.33 1027 7 11 0.00 0.00
2:03 am 02:03 Cloudy 31 -0.6 27 -2.8 85 85 WNW 3 6 30.35 1028 7 11 0.00 0.00
2:53 am 02:53 Cloudy 31 -0.6 27 -2.8 85 85 WSW 5 7 30.35 1028 7 11 0.00 0.00
3:21 am 03:21 Cloudy with Mist and Fog 31 -0.6 28 -2.2 89 89 W 5 7 30.38 1029 6 10 0.00 0.00
3:53 am 03:53 Cloudy with Mist and Fog 31 -0.6 28 -2.2 89 89 W 5 7 30.37 1028 6 10 0.00 0.00
4:53 am 04:53 Cloudy with Mist and Fog 31 -0.6 28 -2.2 89 89 W 3 6 30.38 1029 6 10 0.00 0.00
5:23 am 05:23 Cloudy with Mist and Fog 31 -0.6 28 -2.2 89 89 Calm 30.41 1030 6 10 0.00 0.00
5:32 am 05:32 Cloudy with Mist and Fog 31 -0.6 28 -2.2 89 89 Calm 30.41 1030 5 8 0.00 0.00
5:53 am 05:53 Cloudy with Mist and Fog 31 -0.6 28 -2.2 89 89 Calm 30.40 1029 5 8 0.00 0.00
6:18 am 06:18 Cloudy with Mist and Fog 31 -0.6 28 -2.2 89 89 Calm 30.43 1030 5 8 0.00 0.00
6:53 am 06:53 Cloudy with Mist and Fog 30 -1.1 28 -2.2 92 92 Calm 30.42 1030 4 6 0.00 0.00
7:53 am 07:53 Cloudy with Mist and Fog 30 -1.1 28 -2.2 92 92 Calm 30.44 1031 4 6 0.00 0.00
8:10 am 08:10 Cloudy with Mist and Fog 30 -1.1 28 -2.2 92 92 Calm 30.46 1031 3 4 0.00 0.00
8:53 am 08:53 Cloudy with Mist and Fog 31 -0.6 29 -1.7 92 92 Calm 30.46 1032 3 4 0.00 0.00
9:11 am 09:11 Mostly Cloudy with Mist and Fog 31 -0.6 29 -1.7 92 92 Calm 30.48 1032 3 5 0.00 0.00
9:53 am 09:53 Partly Cloudy with Mist and Fog 33 0.6 29 -1.7 85 85 Calm 30.47 1032 4 6 0.00 0.00
10:04 am 10:04 Mostly Cloudy with Haze 34 1.1 28 -2.2 79 79 Calm 30.48 1032 5 8 0.00 0.00
10:11 am 10:11 Hazy 33 0.6 28 -2.2 82 82 Calm 30.48 1032 5 8 0.00 0.00
10:39 am 10:39 Mostly Cloudy with Haze 35 1.7 29 -1.7 78 78 ENE 5 7 30.48 1032 5 8 0.00 0.00
10:53 am 10:53 Mostly Cloudy with Haze 35 1.7 29 -1.7 78 78 E 7 11 30.47 1032 5 8 0.00 0.00
11:07 am 11:07 Hazy 35 1.7 29 -1.7 78 78 E 7 11 30.48 1032 5 8 0.00 0.00
11:53 am 11:53 Partly Cloudy 37 2.8 28 -2.2 70 70 Calm 30.46 1032 7 11 0.00 0.00
12:28 pm 12:28 Cloudy 39 3.9 28 -2.2 65 65 VRB 3 6 30.45 1031 9 14 0.00 0.00
12:42 pm 12:42 Mostly Cloudy 37 2.8 25 -3.9 62 62 SSE 3 6 30.45 1031 10 16 0.00 0.00
12:53 pm 12:53 Partly Cloudy 38 3.3 26 -3.3 62 62 VRB 5 7 30.43 1031 10 16 0.00 0.00
1:53 pm 13:53 Mostly Cloudy 40 4.4 26 -3.3 58 58 SSE 7 11 30.42 1030 10 16 0.00 0.00
2:53 pm 14:53 Mostly Sunny 40 4.4 25 -3.9 55 55 VRB 5 7 30.40 1030 10 16 0.00 0.00
3:53 pm 15:53 Sunny 39 3.9 25 -3.9 57 57 undefined N/A 30.41 1030 10 16 0.00 0.00
4:53 pm 16:53 Sunny 38 3.3 25 -3.9 60 60 Calm 30.40 1029 10 16 0.00 0.00
5:53 pm 17:53 Clear 37 2.8 25 -3.9 62 62 SSE 3 6 30.40 1029 10 16 0.00 0.00
6:53 pm 18:53 Clear 36 2.2 25 -3.9 64 64 Calm 30.39 1029 10 16 0.00 0.00
7:53 pm 19:53 Clear 34 1.1 24 -4.4 67 67 S 3 6 30.40 1029 10 16 0.00 0.00
8:53 pm 20:53 Clear 32 0 24 -4.4 73 73 Calm 30.38 1029 10 16 0.00 0.00
9:53 pm 21:53 Clear 32 0 24 -4.4 73 73 Calm 30.37 1029 10 16 0.00 0.00
10:53 pm 22:53 Clear 31 -0.6 24 -4.4 76 76 VRB 3 6 30.37 1029 10 16 0.00 0.00
11:53 pm 23:53 Clear 32 0 25 -3.9 75 75 VRB 3 6 30.37 1028 10 16 0.00 0.00

Powered by AerisWeather